GAOFEN 11 3

导读 | 豆包AI

GAOFEN 11 3(高分十一号03星)是中国于2021年11月20日发射的高分辨率光学遥感卫星,属于中国高分辨率对地观测系统重大专项。该卫星具备亚米级分辨率成像能力,可服务于国土普查、城市规划、土地确权、路网规划、农作物估产、防灾减灾等民用领域,同时能为“一带一路”建设及国防现代化发展提供可靠的空间信息保障,进一步完善中国对地观测体系。

Basic Information
目录编号:
49492
目录名称:
GAOFEN 11 3
国际标识:
2021-107A
轨道中心:
EARTH
卫星名称:
GAOFEN 11 3
卫星全名:
--
卫星状态:
在轨 (已飞行1620 天)
发射日期:
2021-11-20 UTC
国别 :
中国 (CN)
星等 :
--
Orbit Information
数据来源 国际轨道数据 AOE轨道数据
星历时间 2026-04-28T22:22:08+0800
9小时前
查看轨道信息
2026-04-23T20:00:00+0800
5天前
查看轨道信息
半长轴 6873.695km 6872.476km
偏心率 0.0006835 0.0004487
轨道倾角 97.213° 97.216°
近地点辐角 225.693° 235.407°
升交点赤经 164.655° 159.751°
平近点角 134.375° 254.590°
近地点 490.859km 491.255km
远地点 500.257km 497.423km
周期 94.525分钟 94.499分钟
每日圈数 15.234122 15.238176
Detailed Information
使用方式:
暂无
2D Orbit Map
3D Orbit Map
Orbit Altitude Analysis Chart
Orbit Inclination Analysis Chart
Orbit Comprehensive Analysis Chart
View Comprehensive Chart